TimeCET,TemperatureF,Dew PointF,Humidity,Sea Level PressureIn,VisibilityMPH,Wind Direction,Wind SpeedMPH,Gust SpeedMPH,PrecipitationIn,Events,Conditions,WindDirDegrees,DateUTC
12:55 AM,17.6,15.8,93,29.92,0.5,SSW,15.0,-,N/A,Fog,Light Freezing Fog,210,2012-11-02 23:55:00
1:00 AM,18,15,85,,0,SSW,15.0,,,Fog,Heavy Fog,210,2012-11-03 00:00:00
1:55 AM,19.4,17.6,93,29.92,0.1,SSW,19.6,-,N/A,Fog,Light Freezing Fog,200,2012-11-03 00:55:00
2:55 AM,19.4,17.6,93,29.89,0.1,SSW,23.0,-,N/A,Fog,Light Freezing Fog,200,2012-11-03 01:55:00
3:55 AM,19.4,17.6,93,29.89,0.1,SSW,18.4,-,N/A,Fog,Light Freezing Fog,200,2012-11-03 02:55:00
4:00 AM,19,17,88,,0,SSW,18.4,,,Fog,Heavy Fog,200,2012-11-03 03:00:00
4:55 AM,19.4,17.6,93,29.89,0.2,SSW,13.8,-,N/A,Fog,Light Freezing Fog,210,2012-11-03 03:55:00
5:55 AM,19.4,17.6,93,29.89,0.5,SSW,13.8,-,N/A,Fog,Light Freezing Fog,210,2012-11-03 04:55:00
6:55 AM,19.4,17.6,93,29.89,0.5,SSW,17.3,-,N/A,Fog,Light Freezing Fog,200,2012-11-03 05:55:00
7:00 AM,19,17,91,,0,SSW,17.3,,,Fog,Heavy Fog,200,2012-11-03 06:00:00
7:55 AM,19.4,17.6,93,29.89,0.5,SSW,15.0,-,N/A,Fog,Light Freezing Fog,200,2012-11-03 06:55:00
8:55 AM,19.4,17.6,93,29.89,6.2,SSW,23.0,-,N/A,,Scattered Clouds,200,2012-11-03 07:55:00
9:55 AM,19.4,15.8,86,29.89,6.2,South,19.6,-,N/A,,Scattered Clouds,180,2012-11-03 08:55:00
10:00 AM,19,16,84,,12,South,19.6,,,,Partly Cloudy,180,2012-11-03 09:00:00
10:55 AM,19.4,14.0,80,29.89,6.2,South,20.7,-,N/A,,Partly Cloudy,170,2012-11-03 09:55:00
11:55 AM,21.2,12.2,68,29.92,6.2,South,23.0,-,N/A,,Partly Cloudy,180,2012-11-03 10:55:00
12:55 PM,23.0,8.6,54,29.89,6.2,SSW,25.3,-,N/A,,Partly Cloudy,200,2012-11-03 11:55:00
1:00 PM,22,9,43,,19,SSW,25.3,,,,Partly Cloudy,200,2012-11-03 12:00:00
1:55 PM,21.2,8.6,58,29.89,6.2,SSW,23.0,-,N/A,,Scattered Clouds,200,2012-11-03 12:55:00
2:55 PM,23.0,5.0,46,29.89,6.2,South,25.3,-,N/A,,Scattered Clouds,190,2012-11-03 13:55:00
3:55 PM,23.0,1.4,39,29.89,6.2,SSW,27.6,-,N/A,,Scattered Clouds,200,2012-11-03 14:55:00
4:55 PM,23.0,1.4,39,29.89,6.2,South,29.9,-,N/A,,Partly Cloudy,190,2012-11-03 15:55:00
5:55 PM,23.0,-0.4,36,29.92,6.2,SSW,32.2,-,N/A,,Partly Cloudy,200,2012-11-03 16:55:00
6:55 PM,21.2,-0.4,39,29.92,6.2,South,27.6,-,N/A,,Partly Cloudy,190,2012-11-03 17:55:00
7:00 PM,22,-0,23,,6,South,27.6,,,,Scattered Clouds,190,2012-11-03 18:00:00
7:55 PM,21.2,-0.4,39,29.92,-9999.0,South,26.5,-,N/A,,Clear,190,2012-11-03 18:55:00
8:55 PM,23.0,1.4,39,29.92,-9999.0,SSW,20.7,-,N/A,,Clear,200,2012-11-03 19:55:00
9:55 PM,23.0,1.4,39,29.92,6.2,SSW,19.6,-,N/A,,Mostly Cloudy,200,2012-11-03 20:55:00
10:00 PM,23,2,25,,7,SSW,19.6,,,,Mostly Cloudy,200,2012-11-03 21:00:00
10:55 PM,23.0,3.2,43,29.92,6.2,South,28.8,-,N/A,,Mostly Cloudy,190,2012-11-03 21:55:00
11:55 PM,23.0,1.4,39,29.89,0.5,South,34.5,-,N/A,Fog,Light Freezing Fog,190,2012-11-03 22:55:00